Location: Newark
(0.5300°S, 127.4800°E)
Time: 05:03:31
(UTC+00:00)

Vanguard 3 - Pass Details

Date: 21 September 2019
Orbit: 508 x 3262 km, 33.3° (Epoch: 15 October)

Event Time Altitude Azimuth Distance (km) Brightness Sun altitude
Rises 19:48:13 0° 240° (WSW) 3,640 - -23.7°
Reaches altitude 10° 19:50:19 10° 242° (WSW) 2,933 - -23.2°
Exits shadow 19:53:35 34° 248° (WSW) 2,005 8.6 -22.4°
Maximum altitude 19:57:42 75° 326° (NW) 1,635 8.5 -21.4°
Drops below altitude 10° 20:11:21 10° 50° (NE) 5,153 11.9 -18.0°
Sets 20:16:20 0° 51° (NE) 6,541 12.6 -16.7°
